IGO220 VOMM-VOBL

Flight info

Callsign IGO220
Flight time 0h 31m
Altitude 20000
Route MMV W117 BIA
Aircraft B738/M-SDE2E3FGHIRWXY/LB1

Departure

Time 2026-04-30 08:35
Airport Chennai International Airport (VOMM)

Arrival

Time 2026-04-30 09:06
Airport Kempegowda International Airport Bengaluru (VOBL)
Time Latitude Longitude Altitude Speed Heading
2026-04-30 08:08 12.98341 80.16316 47 ft 0 kts 156°
2026-04-30 08:25 12.98349 80.16313 45 ft 2 kts 155°
2026-04-30 08:25 12.98364 80.16306 43 ft 2 kts 153°
2026-04-30 08:26 12.98378 80.16298 43 ft 2 kts 151°
2026-04-30 08:26 12.98392 80.16290 44 ft 2 kts 143°
2026-04-30 08:26 12.98404 80.16279 43 ft 2 kts 128°
2026-04-30 08:26 12.98410 80.16264 41 ft 2 kts 73°
2026-04-30 08:27 12.98410 80.16263 41 ft 0 kts 72°
2026-04-30 08:28 12.98419 80.16297 47 ft 10 kts 73°
2026-04-30 08:28 12.98446 80.16369 47 ft 11 kts 69°
2026-04-30 08:29 12.98471 80.16438 47 ft 10 kts 69°
2026-04-30 08:29 12.98496 80.16506 47 ft 10 kts 69°
2026-04-30 08:29 12.98522 80.16572 46 ft 10 kts 68°
2026-04-30 08:29 12.98547 80.16636 47 ft 10 kts 69°
2026-04-30 08:30 12.98569 80.16698 47 ft 9 kts 69°
2026-04-30 08:30 12.98596 80.16756 47 ft 9 kts 44°
2026-04-30 08:30 12.98657 80.16753 47 ft 9 kts 342°
2026-04-30 08:30 12.98716 80.16736 47 ft 9 kts
2026-04-30 08:31 12.98766 80.16768 46 ft 11 kts 57°
2026-04-30 08:31 12.98812 80.16867 46 ft 16 kts 68°
2026-04-30 08:31 12.98854 80.16972 46 ft 16 kts 68°
2026-04-30 08:31 12.98895 80.17073 46 ft 15 kts 68°
2026-04-30 08:32 12.98929 80.17173 48 ft 14 kts 71°
2026-04-30 08:32 12.98968 80.17265 45 ft 14 kts 65°
2026-04-30 08:32 12.99004 80.17353 48 ft 13 kts 68°
2026-04-30 08:32 12.99037 80.17439 46 ft 13 kts 69°
2026-04-30 08:33 12.99069 80.17523 47 ft 12 kts 69°
2026-04-30 08:33 12.99099 80.17604 47 ft 7 kts 69°
2026-04-30 08:33 12.99134 80.17677 48 ft 12 kts 48°
2026-04-30 08:33 12.99211 80.17680 50 ft 12 kts 341°
2026-04-30 08:34 12.99273 80.17635 50 ft 11 kts 291°
2026-04-30 08:34 12.99221 80.17451 48 ft 60 kts 249°
2026-04-30 08:34 12.98960 80.16756 45 ft 145 kts 248°
2026-04-30 08:34 12.98563 80.15657 598 ft 180 kts 251°
2026-04-30 08:35 12.98142 80.14315 1146 ft 215 kts 253°
2026-04-30 08:35 12.97719 80.12732 1578 ft 245 kts 256°
2026-04-30 08:35 12.97643 80.10966 2345 ft 259 kts 282°
2026-04-30 08:35 12.98347 80.09261 3238 ft 264 kts 297°
2026-04-30 08:36 12.99199 80.07566 4070 ft 268 kts 293°
2026-04-30 08:36 12.99926 80.05781 4917 ft 273 kts 290°
2026-04-30 08:36 13.00565 80.03954 5771 ft 276 kts 289°
2026-04-30 08:36 13.01163 80.02075 6646 ft 279 kts 288°
2026-04-30 08:37 13.01737 80.00152 7386 ft 286 kts 288°
2026-04-30 08:37 13.02285 79.98231 8077 ft 292 kts 288°
2026-04-30 08:37 13.02846 79.96197 8831 ft 299 kts 287°
2026-04-30 08:37 13.03402 79.94133 9667 ft 302 kts 286°
2026-04-30 08:38 13.03958 79.92031 10374 ft 308 kts 286°
2026-04-30 08:38 13.04514 79.89905 11169 ft 309 kts 286°
2026-04-30 08:38 13.05068 79.87770 12013 ft 310 kts 286°
2026-04-30 08:38 13.05621 79.85627 12821 ft 312 kts 286°
2026-04-30 08:39 13.06170 79.83494 13631 ft 314 kts 286°
2026-04-30 08:39 13.06735 79.81291 14343 ft 317 kts 285°
2026-04-30 08:39 13.07289 79.79126 15055 ft 319 kts 285°
2026-04-30 08:39 13.07856 79.76910 15744 ft 322 kts 285°
2026-04-30 08:40 13.08426 79.74678 16405 ft 324 kts 285°
2026-04-30 08:40 13.08998 79.72437 17047 ft 326 kts 285°
2026-04-30 08:40 13.09575 79.70176 17597 ft 330 kts 285°
2026-04-30 08:40 13.10159 79.67886 18190 ft 331 kts 285°
2026-04-30 08:41 13.10741 79.65602 18752 ft 332 kts 284°
2026-04-30 08:41 13.11328 79.63297 19229 ft 335 kts 284°
2026-04-30 08:41 13.11920 79.60975 19722 ft 338 kts 284°
2026-04-30 08:41 13.12521 79.58611 19774 ft 356 kts 284°
2026-04-30 08:42 13.13161 79.56095 19802 ft 372 kts 284°
2026-04-30 08:42 13.13820 79.53503 19799 ft 377 kts 284°
2026-04-30 08:42 13.14484 79.50896 19791 ft 378 kts 284°
2026-04-30 08:42 13.15146 79.48290 19789 ft 378 kts 284°
2026-04-30 08:43 13.15810 79.45679 19786 ft 378 kts 284°
2026-04-30 08:43 13.16472 79.43071 19788 ft 378 kts 284°
2026-04-30 08:43 13.17136 79.40457 19794 ft 378 kts 284°
2026-04-30 08:43 13.17801 79.37836 19798 ft 378 kts 284°
2026-04-30 08:44 13.18463 79.35223 19798 ft 379 kts 284°
2026-04-30 08:44 13.19128 79.32602 19797 ft 379 kts 284°
2026-04-30 08:44 13.19790 79.29989 19797 ft 379 kts 284°
2026-04-30 08:44 13.20445 79.27401 19816 ft 379 kts 284°
2026-04-30 08:45 13.21108 79.24782 19814 ft 379 kts 284°
2026-04-30 08:45 13.21770 79.22167 19811 ft 379 kts 284°
2026-04-30 08:45 13.22441 79.19514 19811 ft 379 kts 284°
2026-04-30 08:45 13.23095 79.16927 19815 ft 379 kts 284°
2026-04-30 08:46 13.23756 79.14311 19811 ft 379 kts 284°
2026-04-30 08:46 13.24416 79.11695 19836 ft 378 kts 284°
2026-04-30 08:46 13.25075 79.09085 19835 ft 378 kts 284°
2026-04-30 08:46 13.25736 79.06468 19836 ft 378 kts 284°
2026-04-30 08:47 13.26394 79.03857 19850 ft 378 kts 284°
2026-04-30 08:47 13.27053 79.01241 19850 ft 378 kts 284°
2026-04-30 08:47 13.27692 78.98705 19854 ft 378 kts 284°
2026-04-30 08:47 13.28351 78.96089 19879 ft 379 kts 284°
2026-04-30 08:48 13.29011 78.93470 19881 ft 379 kts 284°
2026-04-30 08:48 13.29454 78.90809 19863 ft 379 kts 269°
2026-04-30 08:48 13.29270 78.88109 19892 ft 379 kts 265°
2026-04-30 08:48 13.29045 78.85436 19741 ft 372 kts 265°
2026-04-30 08:49 13.28827 78.82787 19337 ft 372 kts 266°
2026-04-30 08:49 13.28618 78.80146 18779 ft 374 kts 266°
2026-04-30 08:49 13.28415 78.77474 18200 ft 377 kts 266°
2026-04-30 08:49 13.28223 78.74879 17698 ft 376 kts 267°
2026-04-30 08:50 13.28028 78.72218 17466 ft 367 kts 267°
2026-04-30 08:50 13.27842 78.69658 17367 ft 350 kts 267°
2026-04-30 08:50 13.27668 78.67262 17212 ft 333 kts 266°
2026-04-30 08:50 13.27498 78.64913 16763 ft 328 kts 266°
2026-04-30 08:51 13.27328 78.62571 16151 ft 328 kts 266°
2026-04-30 08:51 13.27160 78.60241 15579 ft 327 kts 267°
2026-04-30 08:51 13.26992 78.57920 15031 ft 326 kts 266°
2026-04-30 08:51 13.26824 78.55606 14545 ft 323 kts 266°
2026-04-30 08:52 13.26657 78.53322 14047 ft 320 kts 266°
2026-04-30 08:52 13.26491 78.51049 13536 ft 318 kts 266°
2026-04-30 08:52 13.26325 78.48772 13133 ft 320 kts 266°
2026-04-30 08:52 13.26175 78.46505 13002 ft 316 kts 270°
2026-04-30 08:53 13.26352 78.44269 12948 ft 319 kts 279°
2026-04-30 08:53 13.26725 78.42038 12929 ft 316 kts 281°
2026-04-30 08:53 13.27130 78.39821 12923 ft 314 kts 281°
2026-04-30 08:53 13.27526 78.37614 12935 ft 314 kts 281°
2026-04-30 08:54 13.27908 78.35397 12941 ft 317 kts 280°
2026-04-30 08:54 13.28280 78.33162 12951 ft 318 kts 280°
2026-04-30 08:54 13.28648 78.30901 12942 ft 320 kts 280°
2026-04-30 08:54 13.29017 78.28610 12958 ft 341 kts 280°
2026-04-30 08:55 13.29402 78.26201 12841 ft 342 kts 280°
2026-04-30 08:55 13.29787 78.23782 12440 ft 344 kts 280°
2026-04-30 08:55 13.30172 78.21353 11956 ft 344 kts 279°
2026-04-30 08:55 13.30114 78.18916 11645 ft 339 kts 253°
2026-04-30 08:56 13.29010 78.16862 11574 ft 325 kts 225°
2026-04-30 08:56 13.27164 78.15639 11489 ft 312 kts 196°
2026-04-30 08:56 13.25072 78.15328 11440 ft 299 kts 181°
2026-04-30 08:56 13.23041 78.15287 11351 ft 285 kts 179°
2026-04-30 08:57 13.21105 78.15282 11224 ft 271 kts 179°
2026-04-30 08:57 13.19238 78.15277 10900 ft 267 kts 179°
2026-04-30 08:57 13.17377 78.15268 10486 ft 268 kts 179°
2026-04-30 08:57 13.15522 78.15223 10110 ft 267 kts 187°
2026-04-30 08:58 13.14355 78.14841 9812 ft 268 kts 211°
2026-04-30 08:58 13.12890 78.12879 9295 ft 263 kts 258°
2026-04-30 08:58 13.12825 78.11655 8975 ft 261 kts 281°
2026-04-30 08:58 13.13474 78.09934 8586 ft 258 kts 298°
2026-04-30 08:59 13.14300 78.08311 8231 ft 255 kts 298°
2026-04-30 08:59 13.15400 78.06186 7747 ft 253 kts 298°
2026-04-30 08:59 13.16226 78.04605 7397 ft 251 kts 299°
2026-04-30 08:59 13.16783 78.03543 7161 ft 250 kts 298°
2026-04-30 09:00 13.17604 78.01981 6819 ft 247 kts 298°
2026-04-30 09:00 13.18412 78.00449 6501 ft 245 kts 299°
2026-04-30 09:00 13.19193 77.98973 6148 ft 244 kts 299°
2026-04-30 09:00 13.20004 77.97443 6030 ft 246 kts 299°
2026-04-30 09:01 13.20728 77.95849 5964 ft 247 kts 282°
2026-04-30 09:01 13.20651 77.94125 6014 ft 242 kts 260°
2026-04-30 09:01 13.20480 77.92404 6010 ft 243 kts 272°
2026-04-30 09:01 13.20523 77.90676 5999 ft 242 kts 272°
2026-04-30 09:02 13.20561 77.87308 5775 ft 227 kts 272°
2026-04-30 09:02 13.20573 77.85715 5495 ft 218 kts 272°
2026-04-30 09:02 13.20586 77.84189 5219 ft 209 kts 274°
2026-04-30 09:03 13.20598 77.82734 4930 ft 196 kts 272°
2026-04-30 09:03 13.20608 77.81400 4675 ft 179 kts 273°
2026-04-30 09:03 13.20619 77.80164 4470 ft 171 kts 273°
2026-04-30 09:03 13.20628 77.78955 4237 ft 166 kts 274°
2026-04-30 09:04 13.20639 77.77789 4036 ft 162 kts 273°
2026-04-30 09:04 13.20649 77.76636 3835 ft 163 kts 274°
2026-04-30 09:04 13.20658 77.75458 3555 ft 163 kts 272°
2026-04-30 09:04 13.20667 77.74313 3370 ft 162 kts 272°
2026-04-30 09:05 13.20676 77.73158 3116 ft 160 kts 272°
2026-04-30 09:05 13.20681 77.71971 2954 ft 173 kts 270°
2026-04-30 09:05 13.20695 77.70836 2954 ft 141 kts 271°
2026-04-30 09:05 13.20705 77.69999 2973 ft 95 kts 270°
2026-04-30 09:06 13.20689 77.69634 2982 ft 17 kts 256°
2026-04-30 09:06 13.20651 77.69530 2983 ft 14 kts 242°
2026-04-30 09:06 13.20609 77.69456 2985 ft 10 kts 240°
2026-04-30 09:06 13.20582 77.69405 2977 ft 0 kts 243°
2026-04-30 09:08 13.20574 77.69396 2986 ft 7 kts 217°
2026-04-30 09:08 13.20548 77.69409 2986 ft 11 kts 113°
2026-04-30 09:08 13.20538 77.69509 2984 ft 15 kts 92°
2026-04-30 09:08 13.20539 77.69613 2982 ft 14 kts 88°
2026-04-30 09:09 13.20541 77.69714 2980 ft 14 kts 90°
2026-04-30 09:09 13.20541 77.69811 2978 ft 15 kts 90°
2026-04-30 09:09 13.20536 77.70000 2973 ft 30 kts 92°
2026-04-30 09:09 13.20533 77.70218 2969 ft 31 kts 90°
2026-04-30 09:10 13.20505 77.70388 2964 ft 16 kts 144°
2026-04-30 09:10 13.20396 77.70388 2954 ft 16 kts 183°
2026-04-30 09:10 13.20290 77.70391 2958 ft 15 kts 171°
2026-04-30 09:10 13.20237 77.70461 2956 ft 14 kts 130°
2026-04-30 09:11 13.20159 77.70465 2964 ft 0 kts 181°